Flag for Slovakia Weather past 2 weeks in Prešov, Slovakia

Now
43 °F

Partly sunny.


Feels Like: 37 °F
Forecast: 26 / 43 °F
Wind: 10 mph from Northwest

Location: Kosice - Barca

Current Time: Mar 3, 2015 at 12:55:13 PM

Latest Report: Mar 3, 2015 at 12:30 PM


Visibility: N/A

Pressure: 30.04 "Hg

Humidity: 49%

Dew point: 25 °F

Location of PrešovLocation

Historic Weather in Prešov — Graph

°F

Prešov temperature yesterday

Maximum temperature yesterday: 45 °F (at 2:30 PM)
Minimum temperature yesterday: 37 °F (at 3:00 AM)
Average temperature yesterday: 41 °F

Past Weeks' High & Low Weather Summary

 TemperatureHumidityPressure
High52 °F (Feb 24, 2:30 PM)100% (Feb 21, 8:30 AM)30.72 "Hg (Feb 21, 8:30 AM)
Low19 °F (Feb 18, 5:30 AM)30% (Feb 17, 1:30 PM)29.65 "Hg (Mar 2, 2:00 PM)
Average38 °F78%30.04 "Hg
* Reported Feb 16 11:00 AM — Mar 3 11:30 AM, Prešov, Weather by CustomWeather, © 2015

Note: Actual official high and low records may vary slightly from our data, if they occured in-between our weather recording intervals... More about our weather records

Advertising

Prešov weather history for previous 24 hours

 ConditionsComfort  
Time TempWeatherWind HumidityBarometerVisibility
11:30 AM
Tue, Mar 3
43 °FScattered clouds.7 mph57%30.04 "HgN/A
11:00 AM41 °FScattered clouds.3 mph70%30.04 "HgN/A
10:30 AM41 °FBroken clouds.2 mph70%30.01 "HgN/A
10:00 AM39 °FBroken clouds.2 mph81%30.01 "HgN/A
9:30 AM39 °FScattered clouds.2 mph81%29.98 "HgN/A
9:00 AM36 °FPartly sunny.6 mph87%29.98 "HgN/A
8:30 AM36 °FBroken clouds.7 mph87%29.95 "HgN/A
8:00 AM36 °FBroken clouds.8 mph87%29.95 "HgN/A
7:30 AM34 °FSunny.2 mph93%29.92 "Hg10 mi
7:00 AM34 °FPassing clouds.3 mph93%29.92 "HgN/A
6:30 AM34 °FSunny.7 mph93%29.92 "Hg10 mi
6:00 AM34 °FClear.6 mph93%29.92 "Hg10 mi
5:30 AM32 °FClear.7 mph93%29.92 "Hg10 mi
5:00 AM32 °FClear.6 mph87%29.92 "Hg10 mi
4:30 AM32 °FPassing clouds.3 mph93%29.89 "HgN/A
4:00 AM34 °FClear.7 mph87%29.89 "Hg10 mi
3:30 AM34 °FPassing clouds.3 mph87%29.89 "HgN/A
3:00 AM34 °FClear.2 mph87%29.86 "Hg10 mi
2:30 AM36 °FPassing clouds.5 mph81%29.86 "HgN/A
2:00 AM36 °FPassing clouds.3 mph87%29.83 "HgN/A
1:30 AM37 °FPassing clouds.6 mph81%29.83 "HgN/A
1:00 AM37 °FPassing clouds.3 mph81%29.83 "HgN/A
12:30 AM39 °FClear.9 mph81%29.83 "Hg10 mi
12:00 AM39 °FClear.9 mph81%29.83 "Hg10 mi
11:30 PM
Mon, Mar 2
39 °FClear.10 mph81%29.80 "Hg10 mi
11:00 PM41 °FPassing clouds.8 mph93%29.80 "Hg5 mi
10:30 PM39 °FPassing clouds.5 mph93%29.77 "Hg4 mi
10:00 PM41 °FPassing clouds.2 mph93%29.77 "Hg4 mi
9:30 PM41 °FPassing clouds.2 mph93%29.74 "Hg5 mi
9:00 PM41 °FPassing clouds.5 mph93%29.74 "Hg4 mi
8:30 PM41 °FPassing clouds.6 mph93%29.71 "Hg5 mi
8:00 PM43 °FClear.6 mph87%29.68 "Hg5 mi
7:30 PM41 °FPassing clouds.5 mph93%29.68 "Hg5 mi
7:00 PM41 °FPassing clouds.8 mph93%29.65 "Hg5 mi
6:30 PM43 °FPassing clouds.3 mph93%29.68 "Hg5 mi
6:00 PM43 °FPassing clouds.2 mph93%29.65 "Hg4 mi
5:30 PM43 °FPartly cloudy.1 mph93%29.65 "Hg4 mi
5:00 PM43 °FFog.3 mph93%29.65 "Hg3 mi
4:30 PM43 °FLight rain. Fog.5 mph93%29.65 "Hg3 mi
4:00 PM43 °FMostly cloudy.3 mph93%29.65 "Hg4 mi
3:30 PM45 °FMostly cloudy.5 mph87%29.65 "Hg4 mi
3:00 PM45 °FMostly cloudy.9 mph87%29.65 "Hg5 mi
2:30 PM45 °FMostly cloudy.13 mph87%29.65 "Hg4 mi
2:00 PM43 °FMostly cloudy.10 mph93%29.65 "Hg4 mi
1:30 PM43 °FMostly cloudy.10 mph93%29.68 "Hg4 mi
1:00 PM43 °FMostly cloudy.15 mph87%29.68 "Hg4 mi
12:30 PM43 °FMostly cloudy.14 mph87%29.68 "Hg5 mi
12:00 PM43 °FPartly sunny.12 mph93%29.68 "Hg4 mi
Weather by CustomWeather, © 2015

See weather overviewHow to use our weather pages